AirNav   SIMCOM
 
 1125 users online  

0GE0 Pinewood Airport
Douglasville, Georgia, USA

GOING TO DOUGLASVILLE?


FAA INFORMATION EFFECTIVE 07 DECEMBER 2017

Location

FAA Identifier: 0GE0
Lat/Long: 33-46-55.3840N / 084-48-02.7750W
33-46.923067N / 084-48.046250W
33.7820511 / -84.8007708
(estimated)
Elevation: 1085 ft. / 330.7 m (surveyed)
Variation: 02W (1985)
From city: 3 miles NW of DOUGLASVILLE, GA
Time zone: UTC -5 (UTC -4 during Daylight Saving Time)
Zip code: 30134

Airport Operations

Airport use: Private use. Permission required prior to landing
Activation date: 08/1972
Control tower: no
ARTCC: ATLANTA CENTER
FSS: MACON FLIGHT SERVICE STATION
Attendance: CONTINUOUS
Wind indicator: yes
Segmented circle: no

Airport Communications

WX AWOS-3 at PUJ (10 nm NW): 126.225 (770-445-3870)
WX ASOS at FTY (14 nm E): PHONE 404-696-5660
WX AWOS-3PT at RYY (17 nm NE): PHONE 770-425-3406
WX AWOS-3 at CTJ (20 nm SW): 118.175 (770-214-9667)

Nearby radio navigation aids

VOR radial/distance  VOR name  Freq  Var
ATLr302/20.4ATLANTA VORTAC116.9005W
PDKr262/25.6PEACHTREE VOR/DME116.6005W
RMGr144/27.8ROME VORTAC115.4001E

 
NDB name  Hdg/Dist  Freq  Var  ID
FLANC283/8.234405WFT ..-. -
CARROLLTON056/21.027804WGPQ --. .--. --.-
CARTERSVILLE179/25.130804WEVZ . ...- --..
COWETA COUNTY355/31.823403WEQQ . --.- --.-
CHERO214/32.241505WDJD -.. .--- -..
PECAT336/32.931605WFFC ..-. ..-. -.-.
CALHOUN175/37.732305WOUK --- ..- -.-

Airport Services

Parking: hangars
Airframe service: NONE
Powerplant service: NONE
Bottled oxygen: NONE
Bulk oxygen: NONE

Runway Information

Runway 2/20

Dimensions: 2000 x 30 ft. / 610 x 9 m
Surface: turf
RUNWAY 2  RUNWAY 20
Traffic pattern: leftleft
Runway end identifier lights: nono
Obstructions: tree
+30' TREE 40' RIGHT OF CENTERLINE.
trees
+50' TREES 35' FROM BOTH SIDES OF RWY AT THR.

Airport Ownership and Management from official FAA records

Ownership: Privately-owned
Owner: MARK BAGWELL & BOB MEADOWS
544 JACK MEADOWS ROAD
DOUGLASVILLE, GA 30134
Phone 770-949-9635
Manager: BOB MEADOWS
544 JACK MEADOWS ROAD
DOUGLASVILLE, GA 30134
Phone 770-949-9635

Airport Operational Statistics

Aircraft based on the field: 6
Single engine airplanes: 6
    
Aircraft operations: avg 50/month *
83% local general aviation
17% transient general aviation
* for 12-month period ending 19 September 1978

Additional Remarks

EXCESSIVE GRADE CHANGES BETWEEN RWY ENDS AND CENTER OF RWY.

Instrument Procedures

There are no published instrument procedures at 0GE0.

Some nearby airports with instrument procedures:

KPUJ - Paulding Northwest Atlanta Airport (10 nm NW)
KFTY - Fulton County Airport-Brown Field (14 nm E)
KMGE - Dobbins Air Reserve Base (16 nm NE)
KRYY - Cobb County International Airport-McCollum Field (17 nm NE)
KCTJ - West Georgia Regional Airport-O V Gray Field (20 nm SW)
 
Loc | Ops | Rwys | IFR | FBO | Links
Com | Nav | Svcs | Stats | Notes


 
Area around 0GE0 (Pinewood Airport)
 
Road maps at: MapQuest Bing Google
 
Aerial photo
WARNING: Photo may not be current or correct
Aerial photo of 0GE0 (Pinewood Airport)
Photo by Bob Meadows
Photo taken 14-Apr-2010
looking Northeast.

Do you have a better or more recent aerial photo of Pinewood Airport that you would like to share? If so, please send us your photo.

 
Sectional chart

 
Airport distance calculator
Flying to Pinewood Airport? Find the distance to fly.

From to 0GE0

Sunrise and sunset
Times for 14-Dec-2017
 Local
(UTC-5)
 Zulu
(UTC)
Morning civil twilight07:0912:09
Sunrise07:3712:37
Sunset17:3122:31
Evening civil twilight17:5822:58

Current date and time
Zulu (UTC)  14-Dec-2017 22:38:29
Local (UTC-5)  14-Dec-2017 17:38:29
 
METAR
KPUJ 
10nm NW 
142215Z AUTO 00000KT 10SM CLR 14/02 A2993 RMK AO2
KFTY 
14nm E 
142153Z 22006KT 10SM CLR 13/01 A2993 RMK AO2 SLP135 T01330011
KMGE 
16nm NE 
142156Z 30005KT 10SM SCT250 13/M01 A2992 RMK AO2A SLP135 T01341010 $
KRYY 
17nm NE 
142148Z 32005KT 10SM CLR 13/M01 A2993 RMK AO2 SLP860 T01331006
KATL 
20nm SE 
142152Z 24005KT 10SM FEW250 12/02 A2993 RMK AO2 SLP139 T01220022
KCTJ 
20nm SW 
142215Z AUTO 00000KT 10SM CLR 11/00 A2997 RMK AO2 T01111002
TAF
KFTY 
14nm E 
141945Z 1420/1518 28005KT P6SM SCT250 FM150200 00000KT P6SM SCT250 FM151500 30006KT P6SM BKN250
KMGE 
16nm NE 
142200Z 1422/1604 30008KT 9999 SKC QNH2991INS BECMG 1515/1516 32012G18KT 9999 FEW120 SCT200 QNH3001INS BECMG 1521/1522 32012KT 9999 FEW200 510809 QNH3005INS TX13/1422Z TNM01/1510Z
KRYY 
17nm NE 
141945Z 1420/1518 29005KT P6SM SCT250 FM150200 00000KT P6SM SCT250 FM151500 30006KT P6SM BKN250
KATL 
20nm SE 
142152Z 1422/1524 26007KT P6SM SCT250 FM151500 30010KT P6SM BKN250 FM152100 32012KT P6SM SCT250
NOTAMs
Click for the latest NOTAMs
NOTAMs are issued by the DoD/FAA and will open in a separate window not controlled by AirNav.

 

 
 

Would you like to see your business listed on this page?

 If your business provides an interesting product or service to pilots, flight crews, aircraft, or users of the Pinewood Airport, you should consider listing it here.  To start the listing process, click on the button below
 
Add a business
 

Other Pages about Pinewood Airport

Update a link
 
Copyright © AirNav, LLC. All rights reserved. Privacy Policy  Contact